1483938000.03,63163,4.0,72594.5,-16.05,-16.65,-16.51,0,*64
1483938001.27,63164,4.0,72582.8,-16.05,-16.79,-16.79,0,*64
1483938002.52,63165,4.0,72606.8,-16.01,-16.79,-16.75,0,*6D
1483938003.77,63166,4.06,72590.0,-16.01,-16.79,-16.79,0,*62
1483938005.0,63167,4.0,72608.5,-16.05,-16.89,-16.89,0,*67
1483938006.24,63168,4.0,72612.5,-16.05,-16.79,-16.75,0,*64
1483938007.48,63169,4.0,72618.8,-16.05,-16.93,-16.89,0,*62
1483938008.72,63170,4.0,72636.0,-16.01,-16.89,-16.79,0,*6A
1483938009.96,63171,4.0,72628.3,-16.05,-16.79,-16.79,0,*60
1483938011.19,63172,4.0,72610.3,-16.05,-16.89,-16.89,0,*63
1483938012.43,63173,4.0,72612.5,-16.05,-16.89,-16.89,0,*62
1483938013.66,63174,4.0,72588.3,-16.05,-16.93,-16.93,0,*65
1483938014.89,63175,4.0,72600.8,-16.05,-16.93,-16.93,0,*64
1483938016.12,63176,4.0,72644.3,-16.05,-16.89,-16.93,0,*6C
1483938017.37,63177,4.0,72608.8,-16.01,-16.79,-16.79,0,*62
1483938018.61,63178,4.0,72618.5,-16.01,-16.79,-16.75,0,*61
1483938019.88,63179,4.0,72616.8,-16.01,-16.79,-16.65,0,*61
1483938021.13,63180,4.0,72618.3,-16.05,-16.79,-16.75,0,*62
1483938022.37,63181,4.0,72632.8,-16.01,-16.79,-16.79,0,*6B
1483938023.62,63182,4.0,72628.0,-16.01,-16.89,-16.75,0,*6B
1483938024.85,63183,4.0,72590.0,-16.05,-16.93,-16.89,0,*66
1483938026.08,63184,4.0,72618.0,-16.01,-16.93,-16.93,0,*6E
1483938027.31,63185,4.06,72566.0,-16.05,-16.97,-16.93,0,*6F
1483938028.55,63186,4.06,72578.3,-16.01,-16.89,-16.89,0,*6C
1483938029.79,63187,4.0,72610.5,-16.01,-16.93,-16.97,0,*69
1483938031.02,63188,4.0,72614.8,-16.05,-16.93,-16.97,0,*62
1483938032.26,63189,4.06,72626.8,-16.05,-16.89,-16.79,0,*68
1483938033.51,63190,4.0,72614.8,-16.01,-16.75,-16.75,0,*6B
1483938034.75,63191,4.0,72592.0,-16.05,-16.79,-16.79,0,*6E
1483938035.98,63192,4.0,72600.0,-16.05,-16.93,-16.89,0,*66
1483938037.22,63193,4.0,72598.0,-16.05,-16.79,-16.75,0,*60
1483938038.49,63194,4.0,72606.5,-16.05,-16.75,-16.65,0,*6A
1483938039.76,63195,4.0,72590.3,-16.01,-16.75,-16.65,0,*6F
1483938041.02,63196,4.0,72580.5,-16.05,-16.75,-16.65,0,*68
1483938042.29,63197,4.0,72580.3,-16.05,-16.65,-16.59,0,*67
1483938043.59,63198,4.06,72596.5,-16.01,-16.65,-16.65,0,*63
1483938044.85,63199,4.06,72616.8,-16.01,-16.59,-16.51,0,*6A
1483938046.14,63200,4.0,72590.3,-16.01,-16.51,-16.51,0,*61
1483938047.39,63201,4.0,72550.8,-16.01,-16.59,-16.59,0,*60
1483938048.68,63202,4.0,72558.8,-16.01,-16.65,-16.65,0,*63
1483938049.95,63203,4.0,72548.8,-16.01,-16.59,-16.65,0,*6D
1483938051.24,63204,4.0,72542.0,-16.05,-16.65,-16.65,0,*61
1483938052.5,63205,4.0,72548.5,-16.05,-16.59,-16.51,0,*68
1483938053.77,63206,4.0,72536.0,-16.01,-16.45,-16.51,0,*62
1483938055.05,63207,4.06,72550.8,-16.05,-16.51,-16.51,0,*62
1483938056.3,63208,4.0,72588.8,-16.01,-16.75,-16.75,0,*69
1483938057.55,63209,4.0,72602.3,-16.01,-16.79,-16.75,0,*64
1483938058.84,63210,4.0,72588.3,-16.01,-16.65,-16.65,0,*60
1483938060.08,63211,4.0,72602.8,-16.01,-16.89,-16.79,0,*6E
1483938061.33,63212,4.0,72620.5,-16.01,-16.75,-16.75,0,*62
1483938062.6,63213,4.0,72618.5,-16.01,-16.59,-16.65,0,*6C
1483938063.84,63214,4.0,72654.8,-16.05,-16.75,-16.79,0,*6C
1483938065.14,63215,4.0,72632.3,-16.01,-16.65,-16.65,0,*65
1483938066.38,63216,4.0,72614.5,-16.05,-16.75,-16.75,0,*62
1483938067.66,63217,4.0,72626.0,-16.01,-16.65,-16.59,0,*68
1483938068.88,63218,4.0,72618.0,-15.99,-16.59,-16.59,0,*6A
1483938070.13,63219,4.0,72626.8,-15.99,-16.75,-16.69,0,*66
1483938071.37,63220,4.0,72606.3,-15.99,-16.75,-16.69,0,*6C
1483938072.59,63221,4.0,72616.0,-15.99,-16.83,-16.83,0,*60
1483938073.81,63222,4.06,72636.8,-15.99,-16.89,-16.83,0,*69
1483938075.05,63223,4.0,72620.8,-16.01,-16.93,-16.89,0,*6B
1483938076.29,63224,4.0,72624.5,-16.01,-16.97,-16.97,0,*67
1483938077.52,63225,4.0,72614.8,-16.01,-16.97,-16.93,0,*62
1483938078.76,63226,4.0,72594.5,-16.05,-16.97,-16.97,0,*61
1483938080.0,63227,4.0,72590.8,-15.99,-17.07,-16.93,0,*6A
1483938081.24,63228,4.0,72596.3,-15.99,-17.03,-16.93,0,*61
1483938082.45,63229,4.0,72618.0,-15.99,-16.93,-16.93,0,*68
1483938083.75,63230,4.0,72626.0,-16.01,-17.07,-17.07,0,*62
1483938085.05,63231,4.06,72642.3,-16.01,-17.07,-17.07,0,*63
1483938086.29,63232,4.06,72636.3,-16.01,-16.97,-16.93,0,*64
1483938087.52,63233,4.0,72644.8,-16.01,-16.89,-16.93,0,*6A
1483938088.77,63234,4.0,72632.5,-16.01,-16.79,-16.75,0,*6A
1483938090.02,63235,4.06,72628.3,-16.01,-16.75,-16.75,0,*67
1483938091.27,63236,4.0,72614.3,-16.01,-16.79,-16.79,0,*64
1483938092.51,63237,4.0,72606.0,-16.01,-16.79,-16.89,0,*6A
1483938093.74,63238,4.0,72610.5,-16.01,-16.93,-16.89,0,*61
1483938094.97,63239,4.0,72612.8,-16.01,-16.93,-16.93,0,*6B
1483938096.2,63240,4.0,72610.8,-16.01,-16.93,-16.93,0,*65
1483938097.44,63241,4.0,72622.0,-16.01,-16.89,-16.89,0,*64
1483938098.69,63242,4.0,72602.0,-16.01,-16.75,-16.75,0,*67
1483938099.94,63243,4.06,72622.5,-16.01,-16.79,-16.79,0,*66
1483938101.2,63244,4.0,72606.5,-16.01,-16.59,-16.51,0,*69
1483938102.49,63245,4.0,72640.0,-16.01,-16.51,-16.51,0,*60
1483938103.74,63246,4.0,72654.3,-16.01,-16.59,-16.59,0,*63
1483938104.97,63247,4.06,72638.3,-16.05,-16.37,-16.45,0,*63
1483938106.21,63248,4.0,72606.8,-16.01,-16.37,-16.45,0,*68
1483938107.49,63249,4.0,72592.3,-16.01,-16.51,-16.51,0,*6C
1483938108.71,63250,4.0,72576.0,-15.99,-16.55,-16.45,0,*67
1483938109.93,63251,4.06,72574.3,-15.99,-16.55,-16.45,0,*66
1483938111.2,63252,4.0,72576.0,-16.01,-16.51,-16.59,0,*6E
1483938112.41,63253,4.0,72586.3,-15.99,-16.55,-16.45,0,*64
1483938113.68,63254,4.0,72612.0,-16.01,-16.59,-16.51,0,*68
1483938114.94,63255,4.0,72608.3,-15.99,-16.31,-16.27,0,*64
1483938116.18,63256,4.06,72622.8,-15.99,-16.41,-16.31,0,*67
1483938117.43,63257,4.0,72628.5,-15.99,-16.45,-16.31,0,*62
1483938118.67,63258,4.06,72646.8,-15.97,-16.55,-16.45,0,*61
1483938119.89,63259,4.0,72640.0,-15.99,-16.55,-16.55,0,*6F
1483938121.14,63260,4.06,72662.0,-15.97,-16.59,-16.59,0,*6B
1483938122.36,63261,4.0,72638.0,-15.99,-16.59,-16.55,0,*68
1483938123.6,63262,4.06,72610.8,-15.99,-16.69,-16.83,0,*63
1483938124.87,63263,4.0,72616.8,-15.97,-16.75,-16.69,0,*65
1483938126.11,63264,4.0,72620.0,-15.97,-16.83,-16.89,0,*65
1483938127.36,63265,4.0,72610.0,-15.97,-16.75,-16.83,0,*67
1483938128.58,63266,4.0,72642.0,-15.99,-16.75,-16.83,0,*6A
1483938129.8,63267,4.0,72654.0,-15.99,-16.83,-16.75,0,*6B
1483938131.08,63268,4.0,72644.8,-15.97,-16.69,-16.75,0,*6E
1483938132.32,63269,4.0,72652.5,-15.99,-16.75,-16.69,0,*61
1483938133.57,63270,4.06,72650.0,-15.99,-16.75,-16.69,0,*69
1483938134.81,63271,4.0,72670.0,-15.97,-16.83,-16.83,0,*6B
1483938136.08,63272,4.06,72680.3,-15.99,-16.69,-16.69,0,*66
1483938137.37,63273,4.0,72678.8,-15.97,-16.69,-16.69,0,*69
1483938138.62,63274,4.0,72678.5,-15.97,-16.83,-16.75,0,*67
1483938139.86,63275,4.0,72676.5,-15.97,-16.75,-16.83,0,*66
1483938141.11,63276,4.0,72672.8,-15.97,-16.75,-16.83,0,*65
1483938142.33,63277,4.06,72676.8,-15.99,-16.83,-16.83,0,*63
1483938143.57,63278,4.0,72684.8,-15.99,-16.83,-16.69,0,*68
1483938144.87,63279,4.0,72680.5,-15.97,-16.69,-16.69,0,*63
1483938146.16,63280,4.0,72658.3,-15.97,-16.69,-16.69,0,*65
1483938147.4,63281,4.0,72666.3,-15.97,-16.89,-16.89,0,*64
1483938148.67,63282,4.06,72672.5,-15.97,-16.75,-16.69,0,*6A
1483938149.96,63283,4.0,72646.8,-15.97,-16.69,-16.69,0,*66
1483938151.23,63284,4.06,72636.5,-15.99,-16.69,-16.69,0,*6F
1483938152.47,63285,4.0,72646.8,-15.97,-16.83,-16.83,0,*60
1483938153.72,63286,4.06,72616.3,-15.97,-16.83,-16.83,0,*63
1483938154.95,63287,4.06,72614.5,-15.97,-16.93,-16.93,0,*62
1483938156.16,63288,4.0,72630.8,-15.99,-16.83,-16.89,0,*69
1483938157.44,63289,4.06,72642.8,-15.97,-16.69,-16.59,0,*6F
1483938158.66,63290,4.0,72628.3,-15.99,-16.55,-16.55,0,*6A
1483938159.93,63291,4.0,72646.5,-15.97,-16.75,-16.69,0,*68
1483938161.2,63292,4.0,72640.8,-15.97,-16.69,-16.75,0,*6B
1483938162.47,63293,4.0,72616.3,-15.97,-16.83,-16.69,0,*63
1483938163.72,63294,4.0,72632.0,-15.97,-16.75,-16.75,0,*60
1483938164.98,63295,4.0,72626.8,-15.99,-16.69,-16.69,0,*6F
1483938166.25,63296,4.0,72610.3,-15.97,-16.75,-16.69,0,*6F
1483938167.52,63297,4.06,72608.0,-15.97,-16.75,-16.69,0,*6E
1483938168.77,63298,4.0,72632.0,-15.97,-16.75,-16.75,0,*6C
1483938170.02,63299,4.0,72612.0,-15.97,-16.75,-16.75,0,*6D
1483938171.29,63300,4.0,72592.8,-15.97,-16.75,-16.69,0,*61
1483938172.55,63301,4.0,72616.5,-15.97,-16.83,-16.69,0,*69
1483938173.82,63302,4.0,72638.5,-15.97,-16.83,-16.69,0,*6A
1483938175.07,63303,4.0,72630.3,-15.97,-16.75,-16.75,0,*6F
1483938176.36,63304,4.0,72618.5,-15.97,-16.69,-16.69,0,*68
1483938177.61,63305,4.0,72602.3,-15.97,-16.59,-16.59,0,*69
1483938178.85,63306,4.0,72610.0,-15.97,-16.59,-16.45,0,*67
1483938180.09,63307,4.0,72644.0,-15.97,-16.75,-16.55,0,*69
1483938181.34,63308,4.0,72656.0,-15.97,-16.55,-16.55,0,*64
1483938182.58,63309,4.0,72654.8,-15.97,-16.41,-16.45,0,*61
1483938183.81,63310,4.0,72616.8,-15.97,-16.45,-16.45,0,*6D
1483938185.06,63311,4.06,72638.0,-15.97,-16.55,-16.59,0,*60
1483938186.29,63312,4.0,72642.0,-15.95,-16.55,-16.55,0,*6D
1483938187.53,63313,4.0,72646.5,-15.95,-16.55,-16.51,0,*68
1483938188.8,63314,4.0,72660.3,-15.97,-16.69,-16.59,0,*6A
1483938190.05,63315,4.0,72670.5,-15.95,-16.55,-16.69,0,*65
1483938191.32,63316,4.06,72672.0,-15.93,-16.69,-16.83,0,*6B
1483938192.59,63317,4.0,72646.8,-15.95,-16.65,-16.65,0,*68
1483938193.86,63318,4.0,72638.0,-15.95,-16.69,-16.69,0,*67
1483938195.13,63319,4.0,72630.8,-15.93,-16.79,-16.69,0,*61
1483938196.35,63320,4.06,72628.8,-15.95,-16.83,-16.83,0,*6C
1483938197.6,63321,4.0,72608.0,-15.95,-16.79,-16.69,0,*6C
1483938198.81,63322,4.06,72614.0,-15.95,-16.83,-16.89,0,*64
1483938200.05,63323,4.0,72644.8,-15.97,-16.89,-16.89,0,*6D
1483938201.27,63324,4.06,72660.5,-15.95,-16.83,-16.79,0,*6D
1483938202.49,63325,4.06,72642.0,-15.95,-16.83,-16.83,0,*69
1483938203.76,63326,4.0,72630.5,-15.95,-16.65,-16.65,0,*6A
1483938205.03,63327,4.0,72636.5,-15.95,-16.51,-16.51,0,*6B
1483938206.29,63328,4.06,72638.5,-15.95,-16.51,-16.51,0,*64
1483938207.54,63329,4.0,72620.5,-15.93,-16.55,-16.55,0,*63
1483938208.81,63330,4.0,72656.0,-15.95,-16.69,-16.69,0,*6D
1483938210.03,63331,4.0,72656.3,-15.95,-16.55,-16.55,0,*6C
1483938211.28,63332,4.0,72636.8,-15.95,-16.69,-16.83,0,*6B
1483938212.5,63333,4.0,72624.5,-15.95,-16.83,-16.79,0,*6B
1483938213.72,63334,4.06,72612.8,-15.95,-16.83,-16.83,0,*69
1483938214.94,63335,4.06,72600.0,-15.95,-16.83,-16.97,0,*6D
1483938216.15,63336,4.0,72596.3,-15.95,-16.97,-16.97,0,*6B
1483938217.4,63337,4.06,72594.0,-15.95,-17.03,-16.97,0,*66
1483938218.67,63338,4.0,72590.3,-15.95,-17.03,-17.11,0,*66
1483938219.93,63339,4.0,72582.0,-15.95,-17.11,-17.17,0,*62
1483938221.17,63340,4.06,72586.0,-15.95,-17.31,-17.41,0,*6D
1483938222.44,63341,4.06,72590.5,-15.95,-17.41,-17.25,0,*69
1483938223.71,63342,4.0,72574.3,-15.95,-17.11,-17.11,0,*68
1483938224.98,63343,4.0,72572.3,-15.95,-17.17,-17.17,0,*69
1483938226.25,63344,4.0,72554.5,-15.95,-17.03,-17.11,0,*6D
1483938227.47,63345,4.0,72564.0,-15.95,-16.97,-16.97,0,*6F
1483938228.68,63346,4.0,72582.0,-15.95,-16.97,-16.97,0,*6C
1483938229.9,63347,4.0,72580.8,-15.95,-16.97,-16.97,0,*6D
1483938231.17,63348,4.0,72654.3,-15.95,-17.03,-17.11,0,*61
1483938232.44,63349,4.0,72648.3,-15.95,-17.03,-17.11,0,*60
1483938233.71,63350,4.06,72650.3,-15.95,-17.25,-17.11,0,*6C
1483938234.92,63351,4.0,72638.3,-15.95,-16.89,-16.89,0,*6A
1483938236.14,63352,4.0,72610.8,-15.95,-16.89,-16.83,0,*63
1483938237.42,63353,4.0,72634.8,-15.99,-17.03,-17.07,0,*60
1483938238.65,63354,4.06,72632.0,-15.97,-16.93,-16.93,0,*6D
1483938239.89,63355,4.0,72632.8,-15.97,-16.93,-16.89,0,*67
1483938241.15,63356,4.0,72650.8,-15.97,-17.03,-16.93,0,*67
1483938242.38,63357,4.06,72662.3,-15.97,-16.93,-16.93,0,*6E
1483938243.62,63358,4.0,72632.3,-15.97,-16.89,-16.89,0,*61
1483938244.86,63359,4.0,72646.5,-15.97,-16.89,-16.89,0,*60
1483938246.09,63360,4.0,72658.8,-15.97,-16.89,-16.89,0,*6A
1483938247.36,63361,4.0,72642.3,-15.99,-17.03,-17.03,0,*65
1483938248.63,63362,4.0,72648.5,-15.97,-17.07,-16.93,0,*64
1483938249.93,63363,4.06,72634.0,-15.97,-17.03,-17.07,0,*6D
1483938251.17,63364,4.0,72626.5,-15.95,-17.11,-16.97,0,*63
1483938252.43,63365,4.0,72642.0,-15.95,-17.03,-17.17,0,*68
1483938253.7,63366,4.0,72648.0,-15.95,-17.11,-17.03,0,*6D
1483938254.97,63367,4.0,72650.8,-15.95,-17.03,-17.11,0,*6C
1483938256.24,63368,4.0,72638.0,-15.95,-17.03,-17.11,0,*63
1483938257.51,63369,4.06,72644.3,-15.95,-17.03,-17.11,0,*62
1483938258.78,63370,4.06,72644.0,-15.95,-17.11,-17.25,0,*6E
1483938259.99,63371,4.0,72656.3,-15.95,-17.31,-17.31,0,*68
1483938261.22,63372,4.06,72652.8,-15.95,-17.11,-17.31,0,*69
1483938262.49,63373,4.06,72644.5,-15.95,-17.17,-17.25,0,*6B
1483938263.78,63374,4.06,72648.8,-15.97,-17.21,-17.21,0,*6F
1483938265.08,63375,4.06,72632.5,-15.97,-17.17,-17.17,0,*6E
1483938266.37,63376,4.0,72636.5,-15.97,-17.07,-17.17,0,*6C
1483938267.67,63377,4.06,72640.3,-15.97,-17.03,-17.07,0,*68
1483938268.9,63378,4.06,72638.3,-15.97,-16.93,-16.93,0,*63
1483938270.14,63379,4.0,72628.5,-15.97,-16.93,-16.93,0,*62
1483938271.43,63380,4.0,72622.0,-15.97,-17.03,-17.07,0,*60
1483938272.67,63381,4.0,72638.5,-15.97,-16.93,-16.93,0,*65
1483938273.93,63382,4.0,72640.8,-15.97,-17.03,-16.89,0,*65
1483938275.18,63383,4.0,72660.8,-15.97,-16.83,-16.75,0,*6E
1483938276.4,63384,4.0,72640.3,-15.99,-16.75,-16.75,0,*6E
1483938277.64,63385,4.06,72634.5,-15.97,-16.89,-16.89,0,*61
1483938278.93,63386,4.0,72646.5,-15.97,-16.69,-16.69,0,*62
1483938280.2,63387,4.0,72654.3,-15.95,-16.51,-16.51,0,*61
1483938281.43,63388,4.06,72658.0,-15.97,-16.45,-16.45,0,*6C
1483938282.68,63389,4.06,72640.5,-15.95,-16.55,-16.65,0,*6C
1483938283.9,63390,4.06,72632.8,-15.95,-16.79,-16.79,0,*67
1483938285.15,63391,4.06,72648.5,-15.95,-16.65,-16.55,0,*65
1483938286.43,63392,4.0,72644.5,-15.93,-16.65,-16.59,0,*6C
1483938287.69,63393,4.0,72644.3,-15.95,-16.51,-16.51,0,*64
1483938288.91,63394,4.06,72644.3,-15.95,-16.55,-16.55,0,*63
1483938290.16,63395,4.0,72622.5,-15.93,-16.55,-16.55,0,*64
1483938291.41,63396,4.06,72646.0,-15.95,-16.69,-16.55,0,*6E
1483938292.65,63397,4.0,72640.3,-15.95,-16.79,-16.65,0,*6D
1483938293.87,63398,4.0,72638.8,-15.95,-16.79,-16.79,0,*6F
1483938295.12,63399,4.0,72650.5,-15.95,-16.69,-16.83,0,*6A
1483938296.39,63400,4.06,72662.0,-15.95,-16.65,-16.65,0,*69
1483938297.61,63401,4.0,72654.5,-15.95,-16.83,-16.79,0,*6D
1483938298.83,63402,4.0,72638.3,-15.95,-16.79,-16.79,0,*6B
1483938300.05,63403,4.0,72628.0,-15.95,-16.79,-16.79,0,*6A
1483938301.27,63404,4.06,72632.8,-15.95,-16.83,-16.79,0,*68
1483938302.49,63405,4.0,72616.8,-15.95,-16.89,-16.83,0,*66
1483938303.73,63406,4.06,72636.0,-15.93,-16.89,-16.89,0,*69
1483938304.95,63407,4.0,72608.3,-15.95,-16.83,-16.79,0,*6B
1483938306.2,63408,4.06,72630.0,-15.95,-16.97,-17.03,0,*6D
1483938307.41,63409,4.0,72630.8,-15.95,-16.97,-16.89,0,*6F
1483938308.62,63410,4.0,72648.3,-15.95,-16.89,-16.89,0,*68
1483938309.84,63411,4.0,72636.0,-15.95,-16.97,-16.97,0,*69
1483938311.05,63412,4.06,72640.5,-15.95,-16.89,-16.89,0,*6A
1483938312.27,63413,4.06,72650.8,-15.95,-16.89,-16.89,0,*6B
1483938313.48,63414,4.06,72638.3,-15.95,-16.97,-16.89,0,*63
1483938314.7,63415,4.06,72646.8,-15.95,-16.97,-16.89,0,*62
1483938315.94,63416,4.0,72650.3,-15.95,-16.97,-17.03,0,*62
1483938317.18,63417,4.06,72676.0,-15.95,-16.89,-17.03,0,*6C
1483938318.45,63418,4.0,72674.0,-15.95,-17.03,-17.11,0,*63
1483938319.72,63419,4.0,72660.8,-15.95,-17.25,-17.25,0,*61
1483938320.96,63420,4.06,72652.3,-15.95,-16.89,-17.03,0,*68
1483938322.18,63421,4.06,72620.3,-15.95,-16.97,-16.89,0,*65
1483938323.47,63422,4.0,72636.0,-15.93,-17.11,-17.03,0,*6C
1483938324.74,63423,4.0,72638.0,-15.95,-17.03,-17.11,0,*6B
1483938326.01,63424,4.06,72656.0,-15.95,-17.17,-17.25,0,*6E
1483938327.25,63425,4.06,72654.8,-15.95,-17.25,-17.31,0,*6B
1483938328.55,63426,4.06,72644.5,-15.97,-17.45,-17.45,0,*6F
1483938329.78,63427,4.06,72646.5,-15.99,-17.35,-17.35,0,*60
1483938331.0,63428,4.0,72650.8,-15.99,-17.35,-17.35,0,*6F
1483938332.27,63429,4.06,72638.8,-15.99,-17.17,-17.17,0,*6E
1483938333.57,63430,4.0,72644.3,-15.97,-17.17,-17.17,0,*68
1483938334.87,63431,4.0,72636.5,-15.97,-17.17,-17.07,0,*68
1483938336.16,63432,4.0,72630.3,-15.97,-17.07,-17.17,0,*6B
1483938337.41,63433,4.0,72614.5,-15.97,-17.31,-17.35,0,*6F
1483938338.62,63434,4.0,72632.5,-15.99,-17.31,-17.31,0,*62
1483938339.92,63435,4.06,72628.3,-15.97,-17.21,-17.07,0,*69
1483938341.15,63436,4.0,72620.3,-15.97,-17.31,-17.31,0,*6E
1483938342.4,63437,4.06,72626.3,-15.99,-17.35,-17.21,0,*64
1483938343.66,63438,4.06,72598.3,-15.97,-17.31,-17.17,0,*64
1483938344.92,63439,4.0,72568.5,-15.95,-17.55,-17.59,0,*6F
1483938346.15,63440,4.06,72590.8,-15.99,-17.35,-17.35,0,*61
1483938347.41,63441,4.0,72626.3,-15.99,-17.45,-17.35,0,*67
1483938348.67,63442,4.0,72634.3,-15.99,-17.21,-17.21,0,*63
1483938349.89,63443,4.06,72650.0,-15.99,-17.31,-17.35,0,*66
1483938351.15,63444,4.06,72644.8,-15.97,-17.35,-17.35,0,*6B
1483938352.42,63445,4.0,72638.5,-15.99,-17.17,-17.17,0,*64
1483938353.68,63446,4.0,72626.0,-15.99,-17.21,-17.17,0,*62
1483938354.95,63447,4.06,72636.0,-15.99,-17.21,-17.21,0,*66
1483938356.16,63448,4.06,72654.8,-15.99,-17.31,-17.31,0,*69
1483938357.46,63449,4.06,72636.3,-15.97,-17.03,-17.07,0,*62
1483938358.68,63450,4.0,72626.3,-15.99,-17.31,-17.35,0,*64
1483938359.95,63451,4.0,72626.5,-15.99,-17.21,-17.21,0,*61
1483938361.24,63452,4.0,72610.5,-16.01,-17.25,-17.25,0,*60
1483938362.53,63453,4.0,72630.8,-16.01,-17.25,-17.25,0,*61
1483938363.83,63454,4.06,72598.3,-16.01,-17.07,-17.11,0,*61
1483938365.13,63455,4.0,72602.8,-16.01,-17.07,-17.07,0,*67
1483938366.37,63456,4.06,72594.3,-16.01,-16.97,-16.97,0,*64
1483938367.64,63457,4.06,72596.5,-15.99,-17.03,-17.03,0,*67
1483938368.91,63458,4.06,72612.0,-15.99,-17.03,-17.03,0,*68
1483938370.16,63459,4.0,72640.3,-15.99,-16.93,-17.07,0,*65
1483938371.39,63460,4.06,72622.5,-15.97,-16.93,-16.89,0,*66
1483938372.61,63461,4.0,72630.5,-15.99,-16.89,-16.83,0,*68
1483938373.82,63462,4.0,72634.3,-15.99,-16.83,-16.89,0,*6B
1483938375.07,63463,4.06,72636.8,-15.99,-16.69,-16.75,0,*6D
1483938376.32,63464,4.0,72634.5,-16.01,-16.89,-16.75,0,*66
1483938377.56,63465,4.06,72648.3,-16.01,-16.89,-16.89,0,*64
1483938378.79,63466,4.06,72664.0,-16.01,-16.93,-16.93,0,*67
1483938380.0,63467,4.0,72628.5,-15.99,-16.89,-16.89,0,*64
1483938381.23,63468,4.06,72628.8,-15.99,-16.75,-16.83,0,*62
1483938382.44,63469,4.0,72662.0,-15.99,-16.75,-16.89,0,*69
1483938383.68,63470,4.0,72666.0,-16.01,-16.89,-16.89,0,*60
1483938384.9,63471,4.0,72642.0,-15.99,-16.83,-16.83,0,*63
1483938386.15,63472,4.0,72650.3,-15.97,-16.83,-16.83,0,*6E
1483938387.36,63473,4.0,72626.0,-15.99,-16.89,-16.93,0,*6A
1483938388.57,63474,4.06,72616.3,-15.99,-16.93,-16.93,0,*66
1483938389.78,63475,4.06,72616.5,-15.99,-16.93,-16.93,0,*67
1483938391.05,63476,4.06,72622.8,-15.99,-17.03,-17.03,0,*64
1483938392.32,63477,4.06,72620.5,-15.99,-17.03,-17.03,0,*65
1483938393.53,63478,4.06,72638.0,-15.99,-16.93,-16.93,0,*6A
1483938394.77,63479,4.0,72644.0,-15.99,-16.93,-17.03,0,*63
1483938395.98,63480,4.06,72638.8,-15.99,-16.93,-16.89,0,*66
1483938397.22,63481,4.06,72650.3,-15.97,-16.89,-16.89,0,*62
1483938398.45,63482,4.06,72628.3,-15.97,-16.93,-16.89,0,*6A
1483938399.68,63483,4.0,72620.3,-15.97,-16.93,-16.89,0,*6B
1483938400.9,63484,4.06,72618.3,-15.99,-16.89,-16.89,0,*69
1483938402.12,63485,4.06,72626.3,-15.99,-16.89,-16.75,0,*6B
1483938403.34,63486,4.0,72628.0,-15.99,-16.89,-16.83,0,*61
1483938404.55,63487,4.06,72652.0,-15.99,-16.89,-16.89,0,*6A
1483938405.79,63488,4.0,72634.3,-15.97,-16.93,-16.89,0,*60
1483938407.0,63489,4.0,72612.3,-15.99,-16.93,-16.93,0,*64
1483938408.21,63490,4.0,72638.3,-15.99,-16.93,-16.89,0,*67
1483938409.44,63491,4.06,72632.5,-15.97,-16.89,-16.89,0,*63
1483938410.66,63492,4.0,72664.0,-15.99,-16.93,-16.83,0,*6F
1483938411.93,63493,4.06,72636.3,-15.99,-17.03,-17.03,0,*6F
1483938413.14,63494,4.06,72654.0,-15.99,-16.93,-16.93,0,*68
1483938414.37,63495,4.0,72648.0,-15.97,-16.93,-16.89,0,*6C
1483938415.59,63496,4.06,72666.3,-15.99,-16.93,-16.83,0,*6B
1483938416.8,63497,4.06,72648.3,-15.99,-16.89,-16.89,0,*6B
1483938418.02,63498,4.06,72630.5,-15.99,-16.89,-16.89,0,*64
1483938419.26,63499,4.06,72632.0,-15.99,-17.03,-16.93,0,*6D
1483938420.55,63500,4.06,72672.5,-15.97,-17.03,-17.03,0,*6A
1483938421.84,63501,4.06,72606.3,-15.97,-17.03,-17.03,0,*6B
1483938423.15,63502,4.0,72608.5,-15.97,-17.17,-17.07,0,*69
1483938424.43,63503,4.06,72648.8,-15.99,-17.07,-17.07,0,*67
1483938425.7,63504,4.06,72672.5,-15.99,-17.07,-17.03,0,*64
1483938426.97,63505,4.06,72650.3,-15.99,-17.03,-17.07,0,*65
1483938428.25,63506,4.06,72660.5,-15.99,-17.07,-17.07,0,*62
1483938429.52,63507,4.0,72662.8,-15.99,-17.17,-17.17,0,*63
1483938430.79,63508,4.06,72654.0,-15.99,-17.21,-17.17,0,*69
1483938432.06,63509,4.0,72668.0,-15.99,-17.17,-17.17,0,*6D
1483938433.34,63510,4.06,72666.3,-15.99,-17.07,-17.07,0,*65
1483938434.57,63511,4.06,72662.0,-15.97,-17.31,-17.31,0,*6A
1483938435.84,63512,4.0,72648.3,-15.99,-17.21,-17.21,0,*67
1483938437.11,63513,4.06,72642.0,-15.99,-17.21,-17.21,0,*66
1483938438.35,63514,4.0,72626.0,-15.99,-17.31,-17.21,0,*60
1483938439.59,63515,4.06,72622.3,-15.99,-17.17,-17.31,0,*64
1483938440.86,63516,4.06,72630.0,-15.99,-17.07,-17.03,0,*67
1483938442.1,63517,4.0,72630.8,-16.01,-16.97,-16.89,0,*6F
1483938443.34,63518,4.0,72626.3,-16.01,-16.89,-16.79,0,*60
1483938444.61,63519,4.06,72658.3,-16.01,-16.59,-16.65,0,*61
1483938445.86,63520,4.06,72620.0,-15.99,-16.69,-16.75,0,*6B
1483938447.07,63521,4.06,72592.5,-15.99,-16.93,-16.93,0,*67
1483938448.31,63522,4.06,72596.8,-16.01,-16.97,-16.97,0,*66
1483938449.58,63523,4.0,72578.0,-16.01,-16.97,-17.07,0,*6F
1483938450.8,63524,4.0,72618.8,-15.99,-16.89,-16.89,0,*62
1483938452.01,63525,4.0,72582.5,-15.99,-16.89,-16.89,0,*63
1483938453.22,63526,4.06,72576.3,-15.99,-16.93,-16.93,0,*60
1483938454.43,63527,4.06,72592.5,-15.99,-16.89,-16.89,0,*61
1483938455.64,63528,4.06,72596.8,-15.99,-16.93,-16.93,0,*6E
1483938456.89,63529,4.0,72610.5,-16.01,-16.89,-16.75,0,*6E
1483938458.13,63530,4.0,72588.0,-16.01,-16.75,-16.79,0,*69
1483938459.38,63531,4.06,72608.0,-16.01,-16.79,-16.79,0,*64
1483938460.62,63532,4.0,72594.0,-16.01,-16.79,-16.89,0,*68
1483938461.86,63533,4.0,72552.8,-15.99,-16.69,-16.75,0,*69
1483938463.11,63534,4.0,72562.0,-15.97,-16.89,-16.83,0,*67
1483938464.33,63535,4.06,72576.5,-15.99,-16.89,-16.83,0,*68
1483938465.56,63536,4.0,72624.5,-16.01,-16.93,-16.93,0,*63
1483938466.86,63537,4.06,72632.3,-16.01,-17.11,-17.07,0,*65
1483938468.13,63538,4.06,72580.8,-15.99,-17.07,-17.03,0,*6B
1483938469.37,63539,4.06,72586.3,-15.99,-16.93,-17.03,0,*66
1483938470.58,63540,4.06,72608.0,-15.99,-16.93,-16.93,0,*60
1483938471.79,63541,4.06,72608.3,-15.99,-16.89,-16.93,0,*6A
1483938473.0,63542,4.06,72610.5,-15.99,-16.93,-16.93,0,*62
1483938474.3,63543,4.06,72620.5,-16.01,-17.07,-17.07,0,*61
1483938475.51,63544,4.0,72626.3,-15.99,-16.93,-16.93,0,*64
1483938476.72,63545,4.06,72608.0,-15.99,-16.89,-16.89,0,*65
1483938477.94,63546,4.0,72620.3,-15.99,-16.89,-16.83,0,*6C
1483938479.16,63547,4.06,72628.5,-15.99,-16.83,-16.83,0,*67
1483938480.38,63548,4.0,72646.8,-15.99,-16.89,-16.83,0,*62
1483938481.6,63549,4.0,72606.0,-15.99,-16.83,-16.89,0,*63
1483938482.82,63550,4.06,72646.8,-15.99,-16.89,-16.83,0,*6B
1483938484.04,63551,4.06,72646.5,-15.99,-16.83,-16.83,0,*60
1483938485.28,63552,4.06,72634.8,-15.99,-16.83,-16.69,0,*67
1483938486.58,63553,4.06,72648.8,-15.97,-16.69,-16.69,0,*6C
1483938487.82,63554,4.0,72652.3,-15.99,-16.69,-16.59,0,*66
1483938489.05,63555,4.06,72662.8,-15.99,-16.55,-16.55,0,*64
1483938490.29,63556,4.0,72660.3,-15.99,-16.59,-16.69,0,*64
1483938491.52,63557,4.06,72656.0,-15.99,-16.59,-16.59,0,*66
1483938492.74,63558,4.0,72638.8,-15.99,-16.59,-16.59,0,*69
1483938493.99,63559,4.06,72622.0,-15.97,-16.75,-16.83,0,*6F
1483938495.2,63560,4.06,72614.0,-15.99,-16.75,-16.89,0,*61
1483938496.42,63561,4.06,72582.3,-15.99,-16.83,-16.83,0,*63
1483938497.64,63562,4.06,72552.8,-15.99,-16.89,-16.83,0,*6A
1483938498.88,63563,4.06,72604.5,-15.97,-16.89,-16.93,0,*64
1483938500.12,63564,4.0,72606.8,-15.97,-16.89,-16.89,0,*68
1483938501.36,63565,4.0,72608.3,-15.97,-16.83,-16.83,0,*69
1483938502.63,63566,4.0,72630.5,-15.97,-16.75,-16.69,0,*67